Back to catalog

COSMOS 2251 DEB

AliveLEO
NORAD 36420·DEBRIS·🇷🇺 Russia

Launched Jun 16, 1993 from Plesetsk Cosmodrome

Loading…

Next Passes (next 24 hours)

TLE

FreshSource: Space-Track

Epoch: Sep 14, 2026, 09:35 UTC

1 36420U 93036AZT 26257.39969292  .00000210  00000-0  79445-4 0  9993
2 36420  74.0366 128.6364 0018014 156.1863  19.2651 14.37104083889962

Track COSMOS 2251 DEB in real time with AllMySat

Download on the App Store